Torna al catalogo

STARLINK-5064

AttivoComunicazioniVLEO
NORAD 55428·PAYLOAD·🇺🇸 United States

Lanciato Jan 31, 2023 da Vandenberg Space Force Base

Loading…

Prossimi Passaggi (prossime 24 ore)

TLE

AggiornatoSource: CelesTrak SupGP

Epoca: Sep 15, 2026, 01:34 UTC

1 55428C 23014AP  26258.06576389  .00073816  00000+0  61865-2 0  2581
2 55428  70.0015 327.1591 0003721 264.7012 117.9109 14.98289273    14

Traccia STARLINK-5064 in tempo reale con AllMySat

Download on the App Store